Weather History for Salida, CO

Change the Weather History Date:

Friday, July 5, 2013

  Actual Average (KGUC) Record (KGUC)
Temperature  
Mean Temperature 74 °F -  
Max Temperature 88 °F 76 °F 84 °F (1999)
Min Temperature 59 °F 43 °F 35 °F (1997)
Cooling Degree Days 8    
Growing Degree Days 24 (Base 50)    
Moisture  
Dew Point 43 °F    
Average Humidity 39    
Maximum Humidity 70    
Minimum Humidity 17    
Precipitation  
Precipitation 0.00 in - - ()
Sea Level Pressure  
Sea Level Pressure 30.21 in    
Wind  
Wind Speed 7 mph (SW)    
Max Wind Speed 18 mph    
Max Gust Speed 32 mph    
Visibility 10 miles    
Events      
Averages and records for this station are not official NWS values.
T = Trace of Precipitation, MM = Missing Value Source: NWS Daily Summary

Daily Weather History Graph

Daily Weather History Graph

Search for Another Location

Airport:

Trip Planner

Search our weather history database for the weather conditions in past years. The results will help you decide how hot, cold, wet, or windy it might be!

Date:

Astronomy

Jul. 05, 2013 Rise Set
Actual Time 5:45 AM MDT 8:31 PM MDT
Civil Twilight 5:14 AM MDT 9:03 PM MDT
Nautical Twilight 4:34 AM MDT 9:42 PM MDT
Astronomical Twilight 3:50 AM MDT 10:27 PM MDT
Moon 3:46 AM MDT (7/5) 6:29 PM MDT (7/5)
Length of Visible Light 15h 48m
Length of Day
14h 45m
Waning Crescent, 6% of the Moon is Illuminated
Jul 5
Waning Crescent
Jul 8
New
Jul 15
First Quarter
Jul 22
Full
Jul 29
Last Quarter

Hourly Weather History & Observations

Time (MDT) Temp. Dew Point Humidity Pressure Visibility Wind Dir Wind Speed Gust Speed Precip Events Conditions
12:15 AM 64.0 °F 43.2 °F 47% 30.27 in 10.0 mi West 11.5 mph - N/A   Clear
12:35 AM 62.6 °F 43.3 °F 49% 30.26 in 10.0 mi West 10.4 mph - N/A   Clear
12:55 AM 63.1 °F 42.6 °F 47% 30.26 in 10.0 mi Calm Calm - N/A   Clear
1:15 AM 63.5 °F 42.6 °F 47% 30.25 in 10.0 mi Calm Calm - N/A   Scattered Clouds
1:35 AM 61.7 °F 42.8 °F 50% 30.25 in 10.0 mi Calm Calm - N/A   Clear
1:55 AM 61.7 °F 42.3 °F 49% 30.25 in 10.0 mi Calm Calm - N/A   Scattered Clouds
2:15 AM 61.9 °F 42.4 °F 49% 30.25 in 10.0 mi Calm Calm - N/A   Clear
2:35 AM 63.5 °F 42.1 °F 46% 30.24 in 10.0 mi NW 5.8 mph - N/A   Clear
2:55 AM 59.5 °F 42.4 °F 53% 30.24 in 10.0 mi Calm Calm - N/A   Clear
3:15 AM 60.8 °F 42.8 °F 52% 30.24 in 10.0 mi NNW 3.5 mph - N/A   Clear
3:35 AM 60.3 °F 42.8 °F 53% 30.24 in 10.0 mi NW 3.5 mph - N/A   Clear
3:55 AM 60.8 °F 43.0 °F 52% 30.23 in 10.0 mi NW 10.4 mph - N/A   Clear
4:15 AM 60.8 °F 43.0 °F 52% 30.24 in 10.0 mi NNW 13.8 mph 20.7 mph N/A   Clear
4:35 AM 60.6 °F 45.5 °F 57% 30.25 in 10.0 mi NW 10.4 mph - N/A   Scattered Clouds
4:55 AM 61.0 °F 43.7 °F 53% 30.25 in 10.0 mi NNW 9.2 mph - N/A   Mostly Cloudy
5:15 AM 61.7 °F 43.3 °F 51% 30.25 in 10.0 mi NW 8.1 mph - N/A   Scattered Clouds
5:35 AM 60.1 °F 44.2 °F 56% 30.25 in 10.0 mi SW 5.8 mph - N/A   Scattered Clouds
5:55 AM 59.9 °F 43.7 °F 55% 30.24 in 10.0 mi WSW 6.9 mph - N/A   Scattered Clouds
6:15 AM 61.0 °F 44.2 °F 54% 30.25 in 10.0 mi NW 5.8 mph - N/A   Mostly Cloudy
6:35 AM 61.2 °F 44.1 °F 53% 30.24 in 10.0 mi North 4.6 mph - N/A   Mostly Cloudy
6:55 AM 62.1 °F 43.7 °F 51% 30.24 in 10.0 mi Calm Calm - N/A   Mostly Cloudy
7:15 AM 63.3 °F 43.2 °F 48% 30.24 in 10.0 mi North 3.5 mph - N/A   Scattered Clouds
7:35 AM 64.6 °F 43.3 °F 46% 30.24 in 10.0 mi North 8.1 mph - N/A   Scattered Clouds
7:55 AM 65.8 °F 44.1 °F 45% 30.24 in 10.0 mi NNW 5.8 mph - N/A   Mostly Cloudy
8:15 AM 67.6 °F 43.3 °F 41% 30.24 in 10.0 mi NNW 4.6 mph - N/A   Overcast
8:35 AM 69.3 °F 42.6 °F 38% 30.24 in 10.0 mi Calm Calm - N/A   Mostly Cloudy
8:55 AM 70.7 °F 41.9 °F 35% 30.24 in 10.0 mi West 3.5 mph - N/A   Mostly Cloudy
9:15 AM 71.2 °F 42.3 °F 35% 30.24 in 10.0 mi SW 3.5 mph - N/A   Scattered Clouds
9:35 AM 76.6 °F 41.2 °F 28% 30.23 in 10.0 mi SSW 11.5 mph 17.3 mph N/A   Clear
9:55 AM 79.0 °F 40.6 °F 25% 30.22 in 10.0 mi SSW 12.7 mph 18.4 mph N/A   Clear
10:15 AM 79.0 °F 41.0 °F 26% 30.21 in 10.0 mi SSW 10.4 mph 17.3 mph N/A   Clear
10:35 AM 81.9 °F 39.4 °F 22% 30.20 in 10.0 mi SW 12.7 mph 23.0 mph N/A   Clear
10:55 AM 82.0 °F 38.7 °F 21% 30.20 in 10.0 mi WSW 15.0 mph 24.2 mph N/A   Clear
11:15 AM 82.6 °F 39.7 °F 22% 30.19 in 10.0 mi SW 16.1 mph 24.2 mph N/A   Clear
11:35 AM 83.7 °F 39.2 °F 21% 30.19 in 10.0 mi WSW 15.0 mph 21.9 mph N/A   Clear
11:55 AM 80.8 °F 39.2 °F 23% 30.19 in 10.0 mi WSW 11.5 mph - N/A   Clear
12:15 PM 80.6 °F 40.5 °F 24% 30.19 in 10.0 mi SSW 9.2 mph - N/A   Clear
12:35 PM 83.5 °F 40.3 °F 22% 30.19 in 10.0 mi SW 11.5 mph - N/A   Clear
12:55 PM 82.8 °F 38.8 °F 21% 30.17 in 10.0 mi SSW 9.2 mph 19.6 mph N/A   Scattered Clouds
1:15 PM 85.8 °F 38.3 °F 19% 30.17 in 10.0 mi SSW 11.5 mph 18.4 mph N/A   Mostly Cloudy
1:35 PM 88.0 °F 37.8 °F 17% 30.15 in 10.0 mi WSW 18.4 mph 24.2 mph N/A   Scattered Clouds
1:55 PM 83.3 °F 40.6 °F 22% 30.15 in 10.0 mi North 16.1 mph 32.2 mph N/A   Mostly Cloudy
2:15 PM 79.7 °F 44.2 °F 28% 30.15 in 10.0 mi North 10.4 mph 18.4 mph N/A   Mostly Cloudy
2:55 PM 83.1 °F 39.0 °F 21% 30.14 in 10.0 mi NNE 8.1 mph - N/A   Scattered Clouds
3:15 PM 83.3 °F 38.3 °F 20% 30.14 in 10.0 mi Calm Calm - N/A   Scattered Clouds
3:35 PM 83.5 °F 38.3 °F 20% 30.12 in 10.0 mi Calm Calm - N/A   Clear
3:55 PM 84.0 °F 38.3 °F 20% 30.12 in 10.0 mi SSW 4.6 mph - N/A   Clear
4:15 PM 84.0 °F 39.0 °F 20% 30.11 in 10.0 mi SSE 4.6 mph - N/A   Scattered Clouds
4:35 PM 81.7 °F 42.1 °F 25% 30.11 in 10.0 mi South 3.5 mph 16.1 mph N/A   Mostly Cloudy
4:55 PM 81.0 °F 42.6 °F 26% 30.11 in 10.0 mi South 10.4 mph 17.3 mph N/A   Mostly Cloudy
5:15 PM 82.4 °F 41.7 °F 24% 30.11 in 10.0 mi South 13.8 mph 21.9 mph N/A   Scattered Clouds
5:35 PM 82.4 °F 40.8 °F 23% 30.10 in 10.0 mi SW 10.4 mph 18.4 mph N/A   Scattered Clouds
5:55 PM 79.9 °F 41.0 °F 25% 30.10 in 10.0 mi South 11.5 mph 20.7 mph N/A   Scattered Clouds
6:15 PM 80.1 °F 41.7 °F 26% 30.10 in 10.0 mi SSW 9.2 mph 16.1 mph N/A   Mostly Cloudy
6:35 PM 79.0 °F 42.1 °F 27% 30.11 in 10.0 mi South 9.2 mph 17.3 mph N/A   Scattered Clouds
6:55 PM 77.9 °F 42.1 °F 28% 30.14 in 10.0 mi South 10.4 mph 19.6 mph N/A   Overcast
7:15 PM 76.6 °F 43.0 °F 30% 30.14 in 10.0 mi SSE 13.8 mph 19.6 mph N/A   Scattered Clouds
7:35 PM 75.4 °F 43.9 °F 32% 30.15 in 10.0 mi SE 13.8 mph 25.3 mph N/A   Clear
7:55 PM 73.2 °F 46.4 °F 38% 30.17 in 10.0 mi ESE 13.8 mph 20.7 mph N/A   Scattered Clouds
8:15 PM 71.8 °F 48.2 °F 43% 30.19 in 10.0 mi ESE 13.8 mph 19.6 mph N/A   Mostly Cloudy
8:35 PM 70.7 °F 48.2 °F 45% 30.22 in 10.0 mi East 12.7 mph 23.0 mph N/A   Overcast
9:15 PM 68.5 °F 49.5 °F 50% 30.25 in 10.0 mi ESE 6.9 mph - N/A   Clear
9:35 PM 67.3 °F 50.2 °F 54% 30.27 in 10.0 mi ESE 10.4 mph 23.0 mph N/A   Scattered Clouds
9:55 PM 65.8 °F 51.4 °F 60% 30.28 in 10.0 mi ESE 10.4 mph 17.3 mph N/A   Scattered Clouds
10:15 PM 65.5 °F 51.3 °F 60% 30.29 in 10.0 mi SE 6.9 mph - N/A   Scattered Clouds
10:35 PM 65.3 °F 50.9 °F 60% 30.29 in 10.0 mi SE 5.8 mph - N/A   Clear
10:55 PM 65.3 °F 50.9 °F 60% 30.29 in 10.0 mi SSE 3.5 mph - N/A   Clear
11:15 PM 63.0 °F 51.4 °F 66% 30.29 in 10.0 mi SW 5.8 mph - N/A   Clear
11:35 PM 62.1 °F 51.4 °F 68% 30.28 in 10.0 mi SW 5.8 mph - N/A   Clear
11:55 PM 61.5 °F 51.6 °F 70% 30.27 in 10.0 mi SSW 5.8 mph - N/A   Clear